Regional Weather Roundup
Issued by NWS

Home | Current Version | Previous Version | Text Only | Print | Product List | Glossary On
Versions: 1 2 3 4 5 6 7 8 9 10 11 12 13 14 15 16 17 18 19 20 21 22 23 24 25 26 27 28 29 30 31 32 33 34 35 36 37 38 39 40 41 42 43 44 45 46 47 48 49 50
000
ASUS45 KBOU 251107
RWRCO

WEATHER ROUNDUP FOR COLORADO
NATIONAL WEATHER SERVICE DENVER/BOULDER CO
500 AM MDT MON MAY 25 2015

NOTE: "FAIR" INDICATES FEW OR NO CLOUDS BELOW 12000 FEET WITH NO
SIGNIFICANT WEATHER AND/OR OBSTRUCTIONS TO VISIBILITY.

COZ001>005-013-030-031-251200-
...NORTHWEST COLORADO...

CITY           SKY/WX    TMP DP  RH WIND       PRES   REMARKS
CRAIG          CLOUDY    43  41  93 CALM      29.97F
HAYDEN         CLOUDY    39  37  93 CALM      29.98S
MEEKER         CLOUDY    41  38  89 CALM      29.98S
MOUNT WERNER   NOT AVBL
STEAMBOAT SPGS CLOUDY    38  37  96 CALM      29.98S
WALDEN         CLOUDY    36  32  87 SW3       29.98S
$$

COZ006>008-011-251200-
...WEST CENTRAL VALLEYS...

CITY           SKY/WX    TMP DP  RH WIND       PRES   REMARKS
GRAND JUNCTION CLOUDY    46  45  96 SE7       29.95S
MONTROSE       CLOUDY    46  44  93 S6        30.00S
EAGLE          CLOUDY    37  37 100 CALM      30.01S
RIFLE          CLOUDY    46  42  86 CALM      29.97F
DELTA          LGT RAIN  48  45  90 MISG      29.99R
NUCLA          CLOUDY    45  43  93 E7        30.00S
$$

COZ017>023-064>068-251200-
...SOUTHWEST COLORADO...

CITY           SKY/WX    TMP DP  RH WIND       PRES   REMARKS
DURANGO        LGT RAIN  42  41  96 NE7       30.02R
CORTEZ         CLOUDY    47  44  90 NE5       29.98S
PAGOSA SPRINGS MOCLDY    38  38 100 CALM      30.04S
TELLURIDE      LGT SNOW  36  35  99 CALM      30.08R
WOLF CREEK PAS NOT AVBL
$$

COZ009-010-012-014-032>034-037-058>063-251200-
...CENTRAL COLORADO...

CITY           SKY/WX    TMP DP  RH WIND       PRES   REMARKS
ASPEN          CLOUDY    37  34  89 CALM      30.00S
BUENA VISTA    CLOUDY    39  36  87 SE3       29.98R
COPPER MTN     SNOW      30  25  80 W17       30.07R VSB<1/4 WCI  18
BERTHOUD PASS  CLOUDY    21  14  73 NW17G23   30.06S WCI   7
COTTONWOOD PAS CLOUDY    37  32  81 CALM      30.02S
GUNNISON       CLOUDY    36  32  87 S6        30.04R
KREMMLING      CLOUDY    36  34  93 CALM      30.00S
LEADVILLE      PTCLDY    30  28  92 N9        30.00F WCI  22
SALIDA         CLOUDY    42  38  85 W6        30.04S
SUNLIGHT       FOG       32  32 100 CALM      30.11R VSB 3/4
WILKERSON PASS FOG       30  28  93 SW7       30.06S VSB 1/2 WCI  23
$$

COZ069>075-251200-
...SAN LUIS VALLEY/SANGRE DE CRISTO MOUNTAINS...

CITY           SKY/WX    TMP DP  RH WIND       PRES   REMARKS
ALAMOSA        PTCLDY    32  29  88 SW5       29.98S WCI  27
LA VETA PASS   CLOUDY   N/A N/A N/A MISG      30.03S
SAGUACHE       CLOUDY    41  37  87 CALM      30.00S
$$

COZ035-036-038>040-251200-
...NORTHERN COLORADO FRONT RANGE...

CITY           SKY/WX    TMP DP  RH WIND       PRES   REMARKS
DENVER INTL AP MOCLDY    43  39  86 SW6       29.88R
DMNS CITY PARK   N/A     41  39  91 S2        29.89S
AURORA         MOCLDY    43  40  89 SW3       29.89S
FRONT RANGE AP PTCLDY    43  41  93 W5        29.89S
ERIE MUNI ARPT CLEAR     39  38  97 CALM      29.88R
BOULDER MUN AP CLEAR     41  37  87 N3        29.87S
CENTENNIAL     PTCLDY    42  38  85 W7        29.89R
BROOMFIELD     CLEAR     45  37  76 W3        29.89S
FORT COLLINS   MOCLDY    45  39  81 SW5       29.89R
LONGMONT       CLOUDY    46  42  86 CALM      29.90R
$$

COZ041-046-047-076>085-087-088-251200-
...PIKES PEAK/PALMER DIVIDE AND SOUTHERN FOOTHILLS...

CITY           SKY/WX    TMP DP  RH WIND       PRES   REMARKS
COLO. SPRINGS  CLOUDY    47  38  71 N7        29.89F
A. F. ACADEMY  MOCLDY    46  37  70 NW5       29.89F
ELLICOTT       NOT AVBL
FALCON         CLOUDY    45  36  70 NW10      29.92S
FORT CARSON    CLOUDY    45  40  83 NW7       29.87F
LIMON          PTCLDY    42  41  96 NW6       29.87S
MONUMENT HILL  NOT AVBL
TRINIDAD       CLEAR     39  34  82 W7        29.89R
$$

COZ042>045-048>051-090-091-251200-
...NORTHEAST COLORADO...

CITY           SKY/WX    TMP DP  RH WIND       PRES   REMARKS
GREELEY ARPT   CLOUDY    46  43  87 W3        29.88R
AKRON          MOCLDY    43  43 100 W12       29.83S
BURLINGTON     CLEAR     46  42  86 W8        29.82S
WRAY           CLOUDY   N/A N/A N/A W7        29.81S
STERLING       MOCLDY    48  46  93 NW8       29.81S
HOLYOKE        NOT AVBL
FORT MORGAN    MOCLDY    44  42  93 W6        29.86R
$$

COZ086-089-092>099-251200-
...SOUTHEAST COLORADO...

CITY           SKY/WX    TMP DP  RH WIND       PRES   REMARKS
PUEBLO         PTCLDY    43  41  93 W7        29.86R
LA JUNTA       PTCLDY    48  44  86 SW3       29.84R
LAMAR          CLEAR     44  43  96 W6        29.81R
SPRINGFIELD      N/A     39  38  96 W6        29.84S
$$


USA.gov is the U.S. government's official web portal to all federal, state and local government web resources and services.